ISS DEB (44304 NORAD) Tracking and Keplerian Element Data

This shows tracking and keplerian element data for the satellite.

Feedback or suggestion? Click here.




ElementValue
Catalog44304
NameISS DEB
Epoch Orbit10297
Epoch Day77.16528859
Epoch Year2021
RAAN6.3735
Inclination51.6186
Eccentricity0.0007037
Argument of Perigee233.6861
Mean Anonmoly126.3515
Mean Motion16.37013081
Decay Rate0.08566056
L11 44304U 98067QB 21077.16528859 .08566056 12248-4 87534-3 0 9993
L22 44304 51.6186 6.3735 0007037 233.6861 126.3515 16.37013081102976



Live tracking and technical data element details for ISS DEB (NORAD 44304). ISS DEB can be tracked NOW for your location showing map with azimuth and elevation plus other details from your city location.







IsCatalogInMostPopularTable: catalog: 44304, numindb: 25383
Update: records affected: 1



GetName: 44304 ISS DEB

Hit Count: updated at: Mon, 13 Jan 2025 19:02:22 GMT